STARLINK-1862 (47149 NORAD) Tracking and Keplerian Element Data

This shows tracking and keplerian element data for the satellite.

Feedback or suggestion? Click here.




ElementValue
Catalog47149
NameSTARLINK-1862
Epoch Orbit891
Epoch Day16.16667824
Epoch Year2021
RAAN97.6085
Inclination53.0548
Eccentricity0.0001262
Argument of Perigee66.3191
Mean Anonmoly189.653
Mean Motion15.52228594
Decay Rate-0.01086132
L11 47149U 20088AD 21016.16667824 -.01086132 00000-0 -19420-1 0 9993
L22 47149 53.0548 97.6085 0001262 66.3191 189.6530 15.52228594 8917

Live tracking and technical data element details for STARLINK-1862 (NORAD 47149). STARLINK-1862 can be tracked NOW for your location showing map with azimuth and elevation plus other details from your city location.

Track the satellite on the map from your city or location and see movement details for azimuth, elevation, latitude, longitude, range, height, and movement on the map or in text.







IsCatalogInMostPopularTable: catalog: 47149, numindb: 18
Update: records affected: 1



GetName: 47149 STARLINK-1862

Hit Count: updated at: Sun, 17 Jan 2021 09:25:36 GMT